EXS6DE EGCC-EHAM

Flight info

Callsign EXS6DE
Flight time 0h 51m
Altitude 33000
Route DESIG L603 LAMSO
Aircraft A321/M-SDE3FGHIRWY/LB1

Departure

Time 2026-04-30 18:27
Airport Manchester Airport (EGCC)

Arrival

Time 2026-04-30 19:19
Airport Amsterdam Airport Schiphol (EHAM)
Time Latitude Longitude Altitude Speed Heading
2026-04-30 17:47 53.36869 -2.28850 255 ft 0 kts 135°
2026-04-30 18:14 53.36890 -2.28883 255 ft 4 kts 180°
2026-04-30 18:15 53.36933 -2.28831 255 ft 0 kts 225°
2026-04-30 18:18 53.36895 -2.28891 255 ft 14 kts 224°
2026-04-30 18:18 53.36834 -2.28992 255 ft 11 kts 219°
2026-04-30 18:19 53.36763 -2.29040 255 ft 12 kts 182°
2026-04-30 18:19 53.36694 -2.28963 255 ft 12 kts 136°
2026-04-30 18:19 53.36628 -2.28882 255 ft 12 kts 141°
2026-04-30 18:19 53.36581 -2.28764 255 ft 13 kts 113°
2026-04-30 18:20 53.36526 -2.28628 255 ft 19 kts 133°
2026-04-30 18:20 53.36428 -2.28459 255 ft 20 kts 134°
2026-04-30 18:20 53.36329 -2.28292 255 ft 20 kts 134°
2026-04-30 18:20 53.36231 -2.28130 255 ft 20 kts 135°
2026-04-30 18:21 53.36136 -2.27968 255 ft 19 kts 134°
2026-04-30 18:21 53.36041 -2.27841 255 ft 16 kts 163°
2026-04-30 18:21 53.35931 -2.27843 255 ft 17 kts 187°
2026-04-30 18:21 53.35768 -2.27871 255 ft 24 kts 185°
2026-04-30 18:22 53.35632 -2.27914 250 ft 18 kts 213°
2026-04-30 18:22 53.35404 -2.28163 241 ft 22 kts 189°
2026-04-30 18:22 53.35259 -2.28260 238 ft 24 kts 216°
2026-04-30 18:23 53.35146 -2.28478 229 ft 26 kts 232°
2026-04-30 18:23 53.35042 -2.28693 223 ft 12 kts 228°
2026-04-30 18:23 53.34978 -2.28802 224 ft 15 kts 225°
2026-04-30 18:23 53.34876 -2.28986 214 ft 15 kts 227°
2026-04-30 18:24 53.34808 -2.29068 210 ft 4 kts 196°
2026-04-30 18:24 53.34801 -2.29070 215 ft 0 kts 189°
2026-04-30 18:24 53.34800 -2.29070 215 ft 0 kts 189°
2026-04-30 18:25 53.34770 -2.29076 209 ft 7 kts 181°
2026-04-30 18:25 53.34685 -2.28929 215 ft 0 kts 55°
2026-04-30 18:26 53.34727 -2.28834 212 ft 40 kts 52°
2026-04-30 18:26 53.35048 -2.28168 230 ft 105 kts 51°
2026-04-30 18:27 53.36121 -2.26005 461 ft 167 kts 49°
2026-04-30 18:27 53.36919 -2.24615 1122 ft 167 kts 44°
2026-04-30 18:28 53.38384 -2.21631 2257 ft 174 kts 62°
2026-04-30 18:28 53.39139 -2.19893 2441 ft 195 kts 61°
2026-04-30 18:28 53.40876 -2.15999 3053 ft 217 kts 59°
2026-04-30 18:29 53.41807 -2.13977 3451 ft 221 kts 58°
2026-04-30 18:29 53.44981 -2.07122 4641 ft 269 kts 57°
2026-04-30 18:30 53.47346 -2.02077 6110 ft 281 kts 56°
2026-04-30 18:30 53.49824 -1.96847 7657 ft 288 kts 56°
2026-04-30 18:31 53.51059 -1.94172 8399 ft 290 kts 62°
2026-04-30 18:31 53.52163 -1.87821 9846 ft 284 kts 95°
2026-04-30 18:32 53.51333 -1.81268 10699 ft 304 kts 110°
2026-04-30 18:32 53.50706 -1.77744 10902 ft 323 kts 110°
2026-04-30 18:32 53.49392 -1.70377 12073 ft 333 kts 110°
2026-04-30 18:33 53.48729 -1.66646 12734 ft 336 kts 110°
2026-04-30 18:33 53.47388 -1.59082 14081 ft 340 kts 110°
2026-04-30 18:33 53.46710 -1.55252 14670 ft 343 kts 110°
2026-04-30 18:34 53.46033 -1.51437 15225 ft 347 kts 110°
2026-04-30 18:34 53.44624 -1.43554 16329 ft 354 kts 110°
2026-04-30 18:34 53.43916 -1.39599 16991 ft 354 kts 110°
2026-04-30 18:35 53.43200 -1.35628 17575 ft 357 kts 110°
2026-04-30 18:35 53.42481 -1.31680 18113 ft 360 kts 110°
2026-04-30 18:35 53.41744 -1.27648 18605 ft 364 kts 110°
2026-04-30 18:36 53.40254 -1.19452 19542 ft 370 kts 110°
2026-04-30 18:36 53.39506 -1.15320 20028 ft 371 kts 110°
2026-04-30 18:36 53.37989 -1.06996 20958 ft 375 kts 110°
2026-04-30 18:37 53.37209 -1.02754 21416 ft 377 kts 110°
2026-04-30 18:37 53.36435 -0.98554 21858 ft 379 kts 110°
2026-04-30 18:37 53.35656 -0.94339 22291 ft 380 kts 110°
2026-04-30 18:37 53.34872 -0.90096 22716 ft 382 kts 110°
2026-04-30 18:38 53.34082 -0.85834 23129 ft 384 kts 110°
2026-04-30 18:38 53.33287 -0.81562 23549 ft 386 kts 110°
2026-04-30 18:38 53.32485 -0.77277 23929 ft 387 kts 110°
2026-04-30 18:38 53.31676 -0.72952 24266 ft 389 kts 110°
2026-04-30 18:39 53.30865 -0.68624 24613 ft 391 kts 110°
2026-04-30 18:39 53.30325 -0.65745 24841 ft 392 kts 110°
2026-04-30 18:39 53.29647 -0.62134 25135 ft 394 kts 110°
2026-04-30 18:39 53.28824 -0.57742 25485 ft 396 kts 110°
2026-04-30 18:40 53.27998 -0.53343 25831 ft 398 kts 110°
2026-04-30 18:40 53.27166 -0.48927 26175 ft 400 kts 110°
2026-04-30 18:40 53.26327 -0.44489 26517 ft 402 kts 110°
2026-04-30 18:40 53.25479 -0.40028 26863 ft 404 kts 110°
2026-04-30 18:41 53.24625 -0.35545 27202 ft 406 kts 110°
2026-04-30 18:41 53.23766 -0.31042 27533 ft 408 kts 110°
2026-04-30 18:41 53.22902 -0.26522 27865 ft 410 kts 110°
2026-04-30 18:41 53.22035 -0.21985 28193 ft 412 kts 110°
2026-04-30 18:42 53.21163 -0.17425 28510 ft 414 kts 110°
2026-04-30 18:42 53.19396 -0.08243 29167 ft 417 kts 111°
2026-04-30 18:42 53.18503 -0.03641 29472 ft 419 kts 111°
2026-04-30 18:45 53.09262 0.43481 32091 ft 433 kts 111°
2026-04-30 18:45 53.08321 0.48234 32408 ft 432 kts 111°
2026-04-30 18:45 53.07379 0.52977 32734 ft 431 kts 111°
2026-04-30 18:46 53.06438 0.57702 33060 ft 430 kts 111°
2026-04-30 18:46 53.05493 0.62416 33232 ft 429 kts 111°
2026-04-30 18:46 53.04558 0.67064 33266 ft 419 kts 111°
2026-04-30 18:47 53.02724 0.76181 33256 ft 415 kts 111°
2026-04-30 18:47 53.00871 0.85311 33259 ft 414 kts 111°
2026-04-30 18:48 52.99022 0.94385 33259 ft 414 kts 111°
2026-04-30 18:48 52.97460 1.03532 33261 ft 417 kts 103°
2026-04-30 18:49 52.96379 1.13041 33258 ft 417 kts 103°
2026-04-30 18:49 52.95284 1.22484 33259 ft 417 kts 103°
2026-04-30 18:50 52.94188 1.31918 33259 ft 417 kts 103°
2026-04-30 18:50 52.93094 1.41350 33263 ft 417 kts 103°
2026-04-30 18:51 52.91982 1.50783 33266 ft 417 kts 103°
2026-04-30 18:51 52.90847 1.60198 33268 ft 417 kts 103°
2026-04-30 18:52 52.89700 1.69666 33268 ft 416 kts 103°
2026-04-30 18:52 52.88561 1.79063 33254 ft 416 kts 103°
2026-04-30 18:53 52.87425 1.88451 33258 ft 416 kts 103°
2026-04-30 18:53 52.86261 1.97908 32572 ft 418 kts 103°
2026-04-30 18:53 52.85676 2.02627 31263 ft 417 kts 103°
2026-04-30 18:54 52.85112 2.07204 30962 ft 394 kts 103°
2026-04-30 18:54 52.84575 2.11563 30805 ft 381 kts 103°
2026-04-30 18:54 52.84043 2.15857 30362 ft 381 kts 103°
2026-04-30 18:54 52.83508 2.20140 29850 ft 378 kts 103°
2026-04-30 18:55 52.82975 2.24382 29385 ft 376 kts 103°
2026-04-30 18:55 52.81915 2.32779 28467 ft 370 kts 103°
2026-04-30 18:55 52.81389 2.36935 28024 ft 368 kts 103°
2026-04-30 18:56 52.80350 2.45151 27140 ft 363 kts 103°
2026-04-30 18:56 52.79834 2.49220 26707 ft 360 kts 104°
2026-04-30 18:56 52.79250 2.53264 25828 ft 367 kts 106°
2026-04-30 18:57 52.77817 2.61308 24845 ft 360 kts 109°
2026-04-30 18:57 52.77072 2.65221 24442 ft 354 kts 109°
2026-04-30 18:57 52.76577 2.67830 24174 ft 351 kts 109°
2026-04-30 18:58 52.75178 2.75363 23329 ft 342 kts 108°
2026-04-30 18:58 52.74512 2.79020 22942 ft 338 kts 108°
2026-04-30 18:58 52.73841 2.82731 22543 ft 336 kts 108°
2026-04-30 18:59 52.72515 2.90069 21745 ft 332 kts 108°
2026-04-30 19:00 52.70538 3.00896 20552 ft 325 kts 108°
2026-04-30 19:00 52.69886 3.04457 20157 ft 323 kts 109°
2026-04-30 19:00 52.68594 3.11503 19360 ft 319 kts 109°
2026-04-30 19:01 52.67314 3.18455 18579 ft 314 kts 109°
2026-04-30 19:01 52.66679 3.21888 18160 ft 312 kts 109°
2026-04-30 19:02 52.65424 3.28670 17414 ft 307 kts 109°
2026-04-30 19:02 52.64180 3.35351 16671 ft 303 kts 109°
2026-04-30 19:03 52.62950 3.41928 15951 ft 298 kts 109°
2026-04-30 19:03 52.61730 3.48451 15237 ft 294 kts 109°
2026-04-30 19:04 52.60533 3.54842 14523 ft 290 kts 109°
2026-04-30 19:04 52.59341 3.61135 13794 ft 286 kts 109°
2026-04-30 19:05 52.58166 3.67342 13080 ft 282 kts 109°
2026-04-30 19:05 52.57008 3.73471 12379 ft 279 kts 109°
2026-04-30 19:06 52.55860 3.79497 11677 ft 283 kts 109°
2026-04-30 19:06 52.55251 3.82657 11335 ft 294 kts 109°
2026-04-30 19:06 52.54016 3.89080 10655 ft 293 kts 109°
2026-04-30 19:07 52.52818 3.95332 9966 ft 281 kts 109°
2026-04-30 19:07 52.52209 3.98337 9601 ft 275 kts 111°
2026-04-30 19:08 52.50833 4.04076 8883 ft 265 kts 114°
2026-04-30 19:08 52.49035 4.09171 8184 ft 257 kts 138°
2026-04-30 19:08 52.47649 4.11023 7842 ft 257 kts 141°
2026-04-30 19:09 52.44839 4.14576 7186 ft 254 kts 141°
2026-04-30 19:09 52.43443 4.16332 6862 ft 252 kts 141°
2026-04-30 19:09 52.42058 4.18073 6527 ft 250 kts 141°
2026-04-30 19:10 52.39308 4.21525 5871 ft 248 kts 142°
2026-04-30 19:10 52.36578 4.24943 5218 ft 246 kts 142°
2026-04-30 19:11 52.35221 4.26640 4894 ft 245 kts 142°
2026-04-30 19:11 52.32511 4.30025 4229 ft 242 kts 142°
2026-04-30 19:11 52.31182 4.31683 3901 ft 240 kts 142°
2026-04-30 19:12 52.29878 4.33310 3604 ft 237 kts 142°
2026-04-30 19:12 52.28557 4.34960 3383 ft 233 kts 142°
2026-04-30 19:12 52.27304 4.36524 3180 ft 224 kts 141°
2026-04-30 19:13 52.24917 4.39510 3002 ft 210 kts 141°
2026-04-30 19:13 52.22802 4.42157 3004 ft 173 kts 140°
2026-04-30 19:13 52.21927 4.43413 3013 ft 164 kts 125°
2026-04-30 19:14 52.21585 4.45146 2784 ft 162 kts 101°
2026-04-30 19:14 52.21485 4.46946 2387 ft 159 kts 98°
2026-04-30 19:14 52.21416 4.48730 2023 ft 155 kts 97°
2026-04-30 19:14 52.21350 4.50492 2010 ft 157 kts 97°
2026-04-30 19:15 52.21284 4.52266 2005 ft 157 kts 97°
2026-04-30 19:15 52.21935 4.55683 2006 ft 167 kts 65°
2026-04-30 19:15 52.22542 4.57227 2003 ft 155 kts 66°
2026-04-30 19:16 52.23107 4.58680 1999 ft 149 kts 67°
2026-04-30 19:16 52.23656 4.60100 1906 ft 147 kts 66°
2026-04-30 19:16 52.24743 4.62915 1566 ft 146 kts 65°
2026-04-30 19:17 52.25283 4.64312 1380 ft 146 kts 66°
2026-04-30 19:17 52.26364 4.67113 987 ft 145 kts 65°
2026-04-30 19:17 52.26899 4.68501 786 ft 146 kts 62°
2026-04-30 19:18 52.27751 4.70718 475 ft 134 kts 64°
2026-04-30 19:18 52.28418 4.72422 232 ft 132 kts 63°
2026-04-30 19:18 52.28908 4.73716 52 ft 131 kts 62°
2026-04-30 19:19 52.29367 4.74928 -4 ft 114 kts 58°
2026-04-30 19:19 52.29637 4.75614 -4 ft 30 kts 55°
2026-04-30 19:19 52.29958 4.75961 -6 ft 20 kts 35°
2026-04-30 19:20 52.30042 4.76121 -6 ft 17 kts 56°
2026-04-30 19:20 52.30116 4.76309 -6 ft 22 kts 57°
2026-04-30 19:20 52.30210 4.76549 -6 ft 5 kts 57°
2026-04-30 19:21 52.30262 4.76686 -6 ft 21 kts 59°
2026-04-30 19:21 52.30403 4.77066 -6 ft 19 kts 59°
2026-04-30 19:22 52.30536 4.77403 -6 ft 28 kts 57°
2026-04-30 19:22 52.30859 4.77609 -6 ft 25 kts
2026-04-30 19:23 52.30990 4.77609 -6 ft 9 kts 342°
2026-04-30 19:24 52.31074 4.77407 -6 ft 8 kts 278°
2026-04-30 19:24 52.31076 4.77383 -6 ft 0 kts 278°
2026-04-30 19:24 52.31051 4.77304 -6 ft 7 kts 192°
2026-04-30 19:25 52.31001 4.77302 -6 ft 2 kts 184°
2026-04-30 19:26 52.30991 4.77301 -6 ft 0 kts 184°